EW4496 Weather Reports


time (UTC)temp
C
wind
direction
speed
KPH
gust
KPH
rain 1hr
cm
rain 24hr
cm
rain mn
cm
humidity
%
barometer
mb
20260504081500 12 184 0.0 3.2 0.00 0.00 0.00 85 1013.5
20260504070115 12 201 0.0 0.0 0.00 0.00 0.00 84 1013.4
20260504044541 13 300 0.0 12.9 0.00 0.00 0.00 76 1012.6
20260504043030 14 272 0.0 8.0 0.00 0.00 0.00 76 1012.4
20260504041530 14 299 0.0 8.0 0.00 0.00 0.00 75 1012.4
20260504040036 15 275 1.6 8.0 0.00 0.00 0.00 74 1012.2
20260504034530 15 358 0.0 8.0 0.00 0.00 0.00 74 1012.1
20260504033030 15 337 0.0 9.7 0.00 0.00 0.00 72 1011.9
20260504031531 15 307 1.6 11.3 0.00 0.00 0.00 69 1011.7
20260504030029 16 334 1.6 14.5 0.00 0.00 0.00 66 1011.7
20260504024530 17 277 1.6 20.9 0.00 0.00 0.00 64 1011.4
20260504023103 17 226 4.8 17.7 0.00 0.00 0.00 61 1011.3
20260504021559 18 340 4.8 24.1 0.00 0.00 0.00 59 1011.2
20260504020114 18 323 4.8 16.1 0.00 0.00 0.00 57 1010.9
20260504014614 18 330 3.2 17.7 0.00 0.00 0.00 57 1010.9
20260504013114 20 338 3.2 12.9 0.00 0.00 0.00 55 1010.8
20260504011614 19 295 4.8 19.3 0.00 0.00 0.00 56 1010.7
20260504010114 20 300 6.4 19.3 0.00 0.00 0.00 54 1010.8
20260504004614 20 313 3.2 16.1 0.00 0.00 0.00 54 1010.7
20260504003116 20 4 0.0 16.1 0.00 0.00 0.00 55 1010.7
20260504001614 20 307 1.6 16.1 0.00 0.00 0.00 53 1010.6
20260504000016 20 338 1.6 12.9 0.00 0.00 0.00 53 1010.7
20260503234531 20 288 1.6 12.9 0.00 0.00 0.00 53 1010.8
20260503233035 20 307 1.6 11.3 0.00 0.00 0.00 53 1010.9
20260503231529 20 245 1.6 9.7 0.00 0.00 0.00 54 1011.0
20260503230029 20 335 0.0 9.7 0.00 0.00 0.00 55 1010.8
20260503224543 20 328 1.6 11.3 0.00 0.00 0.00 57 1010.7
20260503223043 20 318 1.6 8.0 0.00 0.00 0.00 57 1010.9
20260503221546 20 298 1.6 9.7 0.00 0.00 0.00 57 1011.0
20260503220043 20 333 0.0 12.9 0.00 0.00 0.00 58 1011.0
20260503214603 19 245 0.0 11.3 0.00 0.00 0.00 58 1011.3
20260503213059 19 304 0.0 14.5 0.00 0.00 0.00 58 1011.2
20260503211600 20 285 4.8 16.1 0.00 0.00 0.00 57 1011.2
20260503210100 20 339 1.6 17.7 0.00 0.00 0.00 57 1011.3
20260503204603 20 240 1.6 12.9 0.00 0.00 0.00 55 1011.3
20260503203103 20 308 0.0 16.1 0.00 0.00 0.00 56 1011.4
20260503201558 20 258 4.8 24.1 0.00 0.00 0.00 54 1011.6
20260503200059 19 289 0.0 17.7 0.00 0.00 0.00 58 1011.5
20260503194559 18 293 1.6 14.5 0.00 0.00 0.00 59 1011.6
20260503193111 18 328 1.6 12.9 0.00 0.00 0.00 60 1011.7
20260503191517 17 234 3.2 12.9 0.00 0.00 0.00 62 1011.9
20260503190110 17 266 3.2 11.3 0.00 0.00 0.00 64 1012.0
20260503184507 17 231 0.0 12.9 0.00 0.00 0.00 65 1012.1
20260503183008 17 258 6.4 16.1 0.00 0.00 0.00 65 1012.2
20260503181504 17 349 3.2 12.9 0.00 0.00 0.00 65 1012.1
20260503180007 17 306 4.8 14.5 0.00 0.00 0.00 66 1012.0
20260503174502 16 296 1.6 14.5 0.00 0.00 0.00 66 1012.2
20260503173002 16 285 1.6 12.9 0.00 0.00 0.00 68 1012.0
20260503171501 15 193 1.6 16.1 0.00 0.00 0.00 71 1011.9
20260503100110 11 187 0.0 0.0 0.00 0.00 0.00 89 1009.3